• In Kazakhstan
  • List of Countries
  • For 7 days
  • Water Temperature
  • Weather Map
  • News
  • Weather Widgets
  • user-avatar
    Login

    Hourly Weather Liege

    Today, 4 June, Thursday

    Time Temperature Precipitation Wind Pressure Humidity
    00:00 +13°C° 0 mm 1 mps 740 mmHg 96%
    01:00 +13°C° 0 mm 1 mps 740 mmHg 94%
    02:00 +13°C° 0 mm 2 mps 740 mmHg 93%
    03:00 +13°C° 0 mm 2 mps 739 mmHg 92%
    04:00 +13°C° 0.3 mm 2 mps 739 mmHg 91%
    05:00 +13°C° 0.3 mm 2 mps 739 mmHg 90%
    06:00 +12°C° 0.3 mm 3 mps 738 mmHg 89%
    07:00 +12°C° 0.1 mm 3 mps 738 mmHg 87%
    08:00 +13°C° 0.1 mm 3 mps 738 mmHg 86%
    09:00 +14°C° 0.1 mm 3 mps 738 mmHg 84%
    10:00 +14°C° 0.1 mm 3 mps 738 mmHg 82%
    11:00 +14°C° 0.1 mm 3 mps 738 mmHg 80%
    12:00 +14°C° 0.1 mm 3 mps 738 mmHg 77%
    13:00 +13°C° 0.2 mm 3 mps 738 mmHg 80%
    14:00 +13°C° 0.2 mm 4 mps 738 mmHg 82%
    15:00 +12°C° 0.2 mm 4 mps 738 mmHg 85%
    16:00 +12°C° 0.4 mm 3 mps 738 mmHg 87%
    17:00 +11°C° 0.4 mm 3 mps 739 mmHg 89%
    18:00 +12°C° 0.4 mm 2 mps 739 mmHg 91%
    19:00 +12°C° 0.2 mm 2 mps 739 mmHg 91%
    20:00 +10°C° 0.2 mm 3 mps 739 mmHg 91%
    21:00 +10°C° 0.2 mm 3 mps 740 mmHg 91%
    22:00 +9°C° 0 mm 3 mps 740 mmHg 92%
    23:00 +8°C° 0 mm 2 mps 740 mmHg 92%

    Tomorrow, 5 June, Friday

    Time Temperature Precipitation Wind Pressure Humidity
    00:00 +7°C° 0 mm 2 mps 740 mmHg 93%
    01:00 +6°C° 0 mm 2 mps 740 mmHg 93%
    02:00 +5°C° 0 mm 3 mps 740 mmHg 94%
    03:00 +4°C° 0 mm 3 mps 740 mmHg 94%
    04:00 +7°C° 0.1 mm 3 mps 739 mmHg 93%
    05:00 +7°C° 0.1 mm 4 mps 739 mmHg 92%
    06:00 +8°C° 0.1 mm 5 mps 739 mmHg 91%
    07:00 +9°C° 0.4 mm 6 mps 738 mmHg 89%
    08:00 +9°C° 0.4 mm 6 mps 738 mmHg 88%
    09:00 +10°C° 0.4 mm 7 mps 737 mmHg 87%
    10:00 +10°C° 1 mm 7 mps 737 mmHg 88%
    11:00 +10°C° 1 mm 7 mps 736 mmHg 90%
    12:00 +10°C° 1 mm 7 mps 736 mmHg 91%
    13:00 +10°C° 0.6 mm 7 mps 736 mmHg 87%
    14:00 +11°C° 0.6 mm 7 mps 737 mmHg 83%
    15:00 +11°C° 0.6 mm 7 mps 737 mmHg 79%
    16:00 +10°C° 0.8 mm 6 mps 737 mmHg 83%
    17:00 +10°C° 0.8 mm 5 mps 737 mmHg 87%
    18:00 +10°C° 0.8 mm 4 mps 737 mmHg 90%
    19:00 +8°C° 0.4 mm 4 mps 738 mmHg 90%
    20:00 +8°C° 0.4 mm 4 mps 738 mmHg 90%
    21:00 +8°C° 0.4 mm 5 mps 739 mmHg 90%
    22:00 +7°C° 0.1 mm 5 mps 739 mmHg 91%
    23:00 +7°C° 0.1 mm 5 mps 739 mmHg 92%

    Day after tomorrow, 6 June, Saturday

    Time Temperature Precipitation Wind Pressure Humidity
    00:00 +6°C° 0.1 mm 5 mps 739 mmHg 93%
    01:00 +6°C° 0 mm 5 mps 739 mmHg 93%
    02:00 +6°C° 0 mm 5 mps 739 mmHg 93%
    03:00 +6°C° 0 mm 5 mps 740 mmHg 94%
    04:00 +6°C° 0 mm 5 mps 740 mmHg 91%
    05:00 +7°C° 0 mm 6 mps 740 mmHg 88%
    06:00 +8°C° 0 mm 6 mps 740 mmHg 84%
    07:00 +9°C° 0.3 mm 7 mps 741 mmHg 82%
    08:00 +10°C° 0.3 mm 7 mps 741 mmHg 79%
    09:00 +11°C° 0.3 mm 8 mps 741 mmHg 76%
    10:00 +12°C° 0.2 mm 8 mps 741 mmHg 68%
    11:00 +13°C° 0.2 mm 8 mps 741 mmHg 60%
    12:00 +15°C° 0.2 mm 8 mps 741 mmHg 52%
    13:00 +15°C° 0.2 mm 8 mps 741 mmHg 53%
    14:00 +15°C° 0.2 mm 8 mps 741 mmHg 54%
    15:00 +15°C° 0.2 mm 8 mps 741 mmHg 54%
    16:00 +13°C° 0.1 mm 8 mps 741 mmHg 56%
    17:00 +12°C° 0.1 mm 7 mps 741 mmHg 58%
    18:00 +11°C° 0.1 mm 7 mps 742 mmHg 59%
    19:00 +10°C° 0 mm 6 mps 742 mmHg 63%
    20:00 +9°C° 0 mm 6 mps 743 mmHg 67%
    21:00 +7°C° 0 mm 5 mps 743 mmHg 70%
    22:00 +7°C° 0 mm 5 mps 743 mmHg 71%
    23:00 +7°C° 0 mm 6 mps 743 mmHg 73%

    7 June, Sunday

    Time Temperature Precipitation Wind Pressure Humidity
    00:00 +7°C° 0 mm 6 mps 743 mmHg 74%
    01:00 +7°C° 0 mm 6 mps 744 mmHg 75%
    02:00 +7°C° 0 mm 6 mps 744 mmHg 76%
    03:00 +7°C° 0 mm 6 mps 744 mmHg 78%
    04:00 +8°C° 0 mm 6 mps 744 mmHg 77%
    05:00 +8°C° 0 mm 7 mps 744 mmHg 77%
    06:00 +9°C° 0 mm 7 mps 745 mmHg 76%
    07:00 +10°C° 0 mm 7 mps 745 mmHg 74%
    08:00 +11°C° 0 mm 7 mps 745 mmHg 71%
    09:00 +12°C° 0 mm 7 mps 746 mmHg 68%
    10:00 +14°C° 0.2 mm 7 mps 746 mmHg 66%
    11:00 +15°C° 0.2 mm 7 mps 746 mmHg 64%
    12:00 +16°C° 0.2 mm 7 mps 746 mmHg 62%
    13:00 +16°C° 0.5 mm 6 mps 746 mmHg 66%
    14:00 +16°C° 0.5 mm 6 mps 746 mmHg 70%
    15:00 +15°C° 0.5 mm 5 mps 746 mmHg 74%
    16:00 +15°C° 0.6 mm 5 mps 746 mmHg 78%
    17:00 +14°C° 0.6 mm 4 mps 746 mmHg 82%
    18:00 +14°C° 0.6 mm 3 mps 747 mmHg 87%
    19:00 +12°C° 0.4 mm 3 mps 747 mmHg 89%
    20:00 +11°C° 0.4 mm 3 mps 747 mmHg 91%
    21:00 +10°C° 0.4 mm 2 mps 748 mmHg 93%
    22:00 +9°C° 0 mm 2 mps 748 mmHg 93%
    23:00 +9°C° 0 mm 2 mps 748 mmHg 94%

    8 June, Monday

    Time Temperature Precipitation Wind Pressure Humidity
    00:00 +9°C° 0 mm 2 mps 748 mmHg 94%
    01:00 +9°C° 0.2 mm 2 mps 748 mmHg 95%
    02:00 +9°C° 0.2 mm 2 mps 748 mmHg 95%
    03:00 +9°C° 0.2 mm 2 mps 748 mmHg 95%
    04:00 +9°C° 0.3 mm 3 mps 748 mmHg 95%
    05:00 +10°C° 0.3 mm 3 mps 748 mmHg 95%
    06:00 +10°C° 0.3 mm 3 mps 748 mmHg 95%
    07:00 +11°C° 0.4 mm 4 mps 748 mmHg 94%
    08:00 +11°C° 0.4 mm 4 mps 748 mmHg 93%
    09:00 +12°C° 0.4 mm 4 mps 749 mmHg 93%
    10:00 +13°C° 0.7 mm 4 mps 749 mmHg 92%
    11:00 +13°C° 0.7 mm 4 mps 749 mmHg 91%
    12:00 +14°C° 0.7 mm 4 mps 749 mmHg 90%
    13:00 +13°C° 0.5 mm 4 mps 749 mmHg 90%
    14:00 +13°C° 0.5 mm 4 mps 749 mmHg 91%
    15:00 +13°C° 0.5 mm 4 mps 749 mmHg 92%
    16:00 +13°C° 0.2 mm 4 mps 749 mmHg 92%
    17:00 +12°C° 0.2 mm 4 mps 749 mmHg 92%
    18:00 +12°C° 0.2 mm 4 mps 750 mmHg 92%
    19:00 +12°C° 0.1 mm 4 mps 750 mmHg 93%
    20:00 +11°C° 0.1 mm 4 mps 751 mmHg 93%
    21:00 +10°C° 0.1 mm 3 mps 751 mmHg 93%
    22:00 +10°C° 0.1 mm 3 mps 751 mmHg 94%
    23:00 +10°C° 0.1 mm 3 mps 752 mmHg 94%

    9 June, Tuesday

    Time Temperature Precipitation Wind Pressure Humidity
    00:00 +9°C° 0.1 mm 3 mps 752 mmHg 94%
    01:00 +9°C° 0.1 mm 3 mps 752 mmHg 94%
    02:00 +9°C° 0.1 mm 3 mps 752 mmHg 94%
    03:00 +9°C° 0.1 mm 3 mps 752 mmHg 94%
    04:00 +9°C° 0.1 mm 3 mps 752 mmHg 93%
    05:00 +9°C° 0.1 mm 3 mps 753 mmHg 92%
    06:00 +9°C° 0.1 mm 3 mps 753 mmHg 91%
    07:00 +10°C° 0.1 mm 3 mps 753 mmHg 86%
    08:00 +11°C° 0.1 mm 4 mps 753 mmHg 81%
    09:00 +12°C° 0.1 mm 4 mps 753 mmHg 76%
    10:00 +13°C° 0.1 mm 4 mps 753 mmHg 72%
    11:00 +14°C° 0.1 mm 4 mps 753 mmHg 68%
    12:00 +14°C° 0.1 mm 5 mps 754 mmHg 64%
    13:00 +14°C° 0.1 mm 5 mps 753 mmHg 67%
    14:00 +14°C° 0.1 mm 5 mps 753 mmHg 70%
    15:00 +14°C° 0.1 mm 5 mps 753 mmHg 72%
    16:00 +14°C° 0.1 mm 5 mps 753 mmHg 74%
    17:00 +13°C° 0.1 mm 5 mps 754 mmHg 76%
    18:00 +13°C° 0.1 mm 4 mps 754 mmHg 79%
    19:00 +12°C° 0.2 mm 4 mps 754 mmHg 84%
    20:00 +11°C° 0.2 mm 4 mps 754 mmHg 90%
    21:00 +10°C° 0.2 mm 4 mps 754 mmHg 95%
    22:00 +10°C° 0.4 mm 3 mps 754 mmHg 95%
    23:00 +10°C° 0.4 mm 3 mps 754 mmHg 95%
    Show more